Weather History for KUCY - February, 2014

Change the Weather History Date:

Sunday, February 2, 2014

  Actual Average (KDYR) Record (KDYR)
Temperature  
Mean Temperature 30 °F -  
Max Temperature 37 °F 46 °F 64 °F (1997)
Min Temperature 24 °F 32 °F 21 °F (2000)
Degree Days  
Heating Degree Days 34    
Moisture  
Dew Point 29 °F    
Average Humidity 98    
Maximum Humidity 100    
Minimum Humidity 93    
Precipitation  
Precipitation 0.00 in - - ()
Sea Level Pressure  
Sea Level Pressure 30.11 in    
Wind  
Wind Speed 12 mph (North)    
Max Wind Speed 18 mph    
Max Gust Speed -    
Visibility 6 miles    
Events      
Averages and records for this station are not official NWS values.
T = Trace of Precipitation, MM = Missing Value Source: NWS Daily Summary

Daily Weather History Graph

Daily Weather History Graph

Search for Another Location

Airport or City:

Trip Planner

Search our weather history database for the weather conditions in past years. The results will help you decide how hot, cold, wet, or windy it might be!

Date:

Astronomy

Feb. 02, 2014 Rise Set
Actual Time 6:56 AM CST 5:23 PM CST
Civil Twilight 6:29 AM CST 5:50 PM CST
Nautical Twilight 5:58 AM CST 6:21 PM CST
Astronomical Twilight 5:28 AM CST 6:51 PM CST
Moon 8:29 AM CST (2/2) 8:59 PM CST (2/2)
Length of Visible Light 11h 20m
Length of Day
10h 26m
Waxing Crescent, 11% of the Moon is Illuminated
Feb 2
Waxing Crescent
Feb 6
First Quarter
Feb 14
Full
Feb 22
Last Quarter
Mar 1
New

Hourly Weather History & Observations

Time (CST) Temp. Windchill Dew Point Humidity Pressure Visibility Wind Dir Wind Speed Gust Speed Precip Events Conditions
12:15 AM 37.4 °F 29.8 °F 37.4 °F 100% 29.94 in 5.0 mi North 11.5 mph - N/A   Overcast
12:35 AM 35.6 °F 25.9 °F 35.6 °F 100% 29.94 in 3.0 mi North 16.1 mph - N/A   Overcast
12:55 AM 35.6 °F 27.1 °F 35.6 °F 100% 29.95 in 6.0 mi North 12.7 mph - N/A   Overcast
1:15 AM 33.8 °F 25.3 °F 33.8 °F 100% 29.95 in 2.5 mi North 11.5 mph - N/A   Overcast
1:35 AM 33.8 °F 24.3 °F 33.8 °F 100% 29.97 in 1.8 mi North 13.8 mph - N/A   Overcast
1:55 AM 33.8 °F 23.9 °F 33.8 °F 100% 29.97 in 2.0 mi North 15.0 mph - N/A   Overcast
2:15 AM 33.8 °F 23.9 °F 33.8 °F 100% 29.99 in 2.5 mi North 15.0 mph - N/A   Overcast
2:35 AM 33.8 °F 23.9 °F 32.0 °F 93% 30.00 in 2.5 mi North 15.0 mph - N/A   Overcast
2:55 AM 32.0 °F 20.8 °F 32.0 °F 100% 30.01 in 1.8 mi North 17.3 mph - N/A   Overcast
3:15 AM 32.0 °F 21.2 °F 32.0 °F 100% 30.01 in 4.0 mi North 16.1 mph - N/A   Overcast
3:35 AM 32.0 °F 22.1 °F 30.2 °F 93% 30.00 in 7.0 mi North 13.8 mph - N/A   Overcast
3:55 AM 30.2 °F 20.2 °F 30.2 °F 100% 30.04 in 10.0 mi North 12.7 mph - N/A   Overcast
4:15 AM 32.0 °F 22.1 °F 30.2 °F 93% 30.04 in 4.0 mi North 13.8 mph - N/A   Overcast
4:35 AM 30.2 °F 18.5 °F 30.2 °F 100% 30.02 in 5.0 mi NNE 17.3 mph - N/A   Overcast
4:55 AM 30.2 °F 19.3 °F 30.2 °F 100% 30.04 in 10.0 mi North 15.0 mph - N/A   Overcast
5:15 AM 30.2 °F 19.8 °F 30.2 °F 100% 30.05 in 10.0 mi North 13.8 mph - N/A   Overcast
5:35 AM 30.2 °F 20.8 °F 30.2 °F 100% 30.07 in 10.0 mi North 11.5 mph - N/A   Overcast
5:55 AM 30.2 °F 21.3 °F 30.2 °F 100% 30.09 in 10.0 mi North 10.4 mph - N/A   Overcast
6:15 AM 32.0 °F 23.6 °F 30.2 °F 93% 30.08 in 10.0 mi North 10.4 mph - N/A   Overcast
6:35 AM 30.2 °F 21.9 °F 30.2 °F 100% 30.09 in 10.0 mi North 9.2 mph - N/A   Overcast
6:55 AM 30.2 °F 20.2 °F 30.2 °F 100% 30.11 in 10.0 mi North 12.7 mph - N/A   Overcast
7:15 AM 30.2 °F 20.8 °F 30.2 °F 100% 30.11 in 10.0 mi North 11.5 mph - N/A   Overcast
7:35 AM 30.2 °F 21.3 °F 30.2 °F 100% 30.14 in 9.0 mi North 10.4 mph - N/A   Overcast
7:55 AM 30.2 °F 20.8 °F 30.2 °F 100% 30.17 in 8.0 mi North 11.5 mph - N/A   Overcast
8:15 AM 30.2 °F 20.2 °F 30.2 °F 100% 30.15 in 6.0 mi North 12.7 mph - N/A   Overcast
8:35 AM 30.2 °F 19.8 °F 30.2 °F 100% 30.14 in 4.0 mi North 13.8 mph - N/A   Overcast
8:55 AM 30.2 °F 20.2 °F 30.2 °F 100% 30.17 in 6.0 mi North 12.7 mph - N/A   Overcast
9:15 AM 30.2 °F 20.8 °F 30.2 °F 100% 30.16 in 5.0 mi North 11.5 mph - N/A   Overcast
9:35 AM 30.2 °F 20.8 °F 30.2 °F 100% 30.17 in 5.0 mi North 11.5 mph - N/A   Overcast
9:55 AM 30.2 °F 19.8 °F 30.2 °F 100% 30.17 in 6.0 mi North 13.8 mph - N/A   Overcast
10:15 AM 30.2 °F 18.9 °F 30.2 °F 100% 30.14 in 7.0 mi NNE 16.1 mph - N/A   Overcast
10:35 AM 30.2 °F 18.1 °F 28.4 °F 93% 30.17 in 7.0 mi North 18.4 mph - N/A   Overcast
10:55 AM 30.2 °F 21.3 °F 28.4 °F 93% 30.19 in 7.0 mi NNE 10.4 mph - N/A   Overcast
11:15 AM 30.2 °F 21.3 °F 28.4 °F 93% 30.19 in 6.0 mi NNE 10.4 mph - N/A   Overcast
11:35 AM 30.2 °F 21.3 °F 28.4 °F 93% 30.19 in 4.0 mi North 10.4 mph - N/A   Overcast
11:55 AM 30.2 °F 21.3 °F 28.4 °F 93% 30.16 in 4.0 mi North 10.4 mph - N/A   Overcast
12:15 PM 30.2 °F 19.3 °F 28.4 °F 93% 30.15 in 6.0 mi North 15.0 mph - N/A   Overcast
12:35 PM 30.2 °F 19.8 °F 28.4 °F 93% 30.11 in 6.0 mi NNE 13.8 mph - N/A   Overcast
12:55 PM 30.2 °F 20.2 °F 30.2 °F 100% 30.10 in 6.0 mi NNE 12.7 mph - N/A   Overcast
1:15 PM 30.2 °F 19.8 °F 28.4 °F 93% 30.10 in 10.0 mi NNE 13.8 mph - N/A   Overcast
1:35 PM 30.2 °F 19.3 °F 28.4 °F 93% 30.14 in 9.0 mi North 15.0 mph - N/A   Overcast
1:55 PM 28.4 °F 17.0 °F 28.4 °F 100% 30.14 in 2.5 mi North 15.0 mph - N/A   Overcast
2:15 PM 28.4 °F 17.0 °F 28.4 °F 100% 30.18 in 4.0 mi North 15.0 mph - N/A   Overcast
2:35 PM 28.4 °F 19.1 °F 28.4 °F 100% 30.16 in 4.0 mi North 10.4 mph - N/A   Overcast
2:55 PM 28.4 °F 16.6 °F 28.4 °F 100% 30.14 in 5.0 mi North 16.1 mph - N/A   Overcast
3:15 PM 28.4 °F 17.0 °F 28.4 °F 100% 30.10 in 4.0 mi NNE 15.0 mph - N/A   Overcast
3:35 PM 28.4 °F 17.5 °F 28.4 °F 100% 30.09 in 7.0 mi NNE 13.8 mph - N/A   Overcast
3:55 PM 28.4 °F 17.5 °F 28.4 °F 100% 30.11 in 7.0 mi North 13.8 mph - N/A   Overcast
4:15 PM 28.4 °F 19.1 °F 28.4 °F 100% 30.15 in 6.0 mi NNE 10.4 mph - N/A   Overcast
4:35 PM 28.4 °F 19.7 °F 28.4 °F 100% 30.14 in 3.0 mi NNE 9.2 mph - N/A   Overcast
4:55 PM 28.4 °F 19.1 °F 28.4 °F 100% 30.12 in 5.0 mi North 10.4 mph - N/A   Overcast
5:15 PM 28.4 °F 21.2 °F 28.4 °F 100% 30.15 in 4.0 mi NNE 6.9 mph - N/A   Overcast
5:35 PM 28.4 °F 21.2 °F 28.4 °F 100% 30.14 in 4.0 mi NNE 6.9 mph - N/A   Overcast
5:55 PM 28.4 °F 19.7 °F 28.4 °F 100% 30.11 in 5.0 mi NNE 9.2 mph - N/A   Overcast
6:15 PM 28.4 °F 21.2 °F 28.4 °F 100% 30.11 in 10.0 mi NNE 6.9 mph - N/A   Overcast
6:35 PM 28.4 °F 21.2 °F 28.4 °F 100% 30.11 in 7.0 mi NNE 6.9 mph - N/A   Overcast
6:55 PM 28.4 °F 22.2 °F 28.4 °F 100% 30.10 in 5.0 mi NNE 5.8 mph - N/A   Overcast
7:15 PM 28.4 °F 21.2 °F 26.6 °F 93% 30.14 in 8.0 mi NNE 6.9 mph - N/A   Overcast
7:35 PM 28.4 °F 23.3 °F 26.6 °F 93% 30.15 in 6.0 mi NNE 4.6 mph - N/A   Overcast
7:55 PM 28.4 °F 23.3 °F 26.6 °F 93% 30.16 in 5.0 mi North 4.6 mph - N/A   Overcast
8:15 PM 28.4 °F 22.2 °F 26.6 °F 93% 30.17 in 6.0 mi NNE 5.8 mph - N/A   Overcast
8:35 PM 26.6 °F 20.0 °F 26.6 °F 100% 30.15 in 2.5 mi North 5.8 mph - N/A   Overcast
8:55 PM 26.6 °F 18.2 °F 26.6 °F 100% 30.14 in 3.0 mi North 8.1 mph - N/A   Overcast
9:15 PM 26.6 °F 19.1 °F 24.8 °F 93% 30.13 in 2.5 mi North 6.9 mph - N/A   Overcast
9:35 PM 24.8 °F 17.9 °F 24.8 °F 100% 30.13 in 7.0 mi NNE 5.8 mph - N/A   Overcast
9:55 PM 24.8 °F 20.5 °F 24.8 °F 100% 30.17 in 6.0 mi North 3.5 mph - N/A   Overcast
10:15 PM 24.8 °F 17.9 °F 24.8 °F 100% 30.16 in 5.0 mi NNE 5.8 mph - N/A   Overcast
10:35 PM 26.6 °F 21.2 °F 24.8 °F 93% 30.15 in 5.0 mi North 4.6 mph - N/A   Overcast
10:55 PM 24.8 °F 17.9 °F 24.8 °F 100% 30.15 in 8.0 mi North 5.8 mph - N/A   Overcast
11:15 PM 24.8 °F 17.9 °F 24.8 °F 100% 30.14 in 8.0 mi North 5.8 mph - N/A   Overcast
11:35 PM 24.8 °F 19.1 °F 23.0 °F 93% 30.15 in 9.0 mi North 4.6 mph - N/A   Overcast
11:55 PM 24.8 °F 17.9 °F 23.0 °F 93% 30.15 in 10.0 mi North 5.8 mph - N/A   Overcast